Theta_e
336 344 352 350 349 349 349 349 348 348 348 344 342 340 338 337 335 334 334 336 335 336 337 335 336 336 336 336 337 338 339 341 343 345 346 348 349 350 352 352 351 349 351
338 347 352 350 347 349 347 347 347 347 346 343 340 338 337 336 333 332 333 335 335 336 336 335 335 334 334 334 334 335 336 338 340 342 343 343 346 349 349 349 351 349 352
339 348 349 350 347 346 348 347 345 346 344 341 338 337 336 335 333 331 333 334 334 334 334 335 335 333 333 333 333 333 333 335 336 339 342 343 343 342 347 348 351 350 350
342 349 350 350 348 346 348 345 344 344 341 339 337 335 335 333 330 331 332 332 332 331 332 332 332 332 332 332 332 332 332 332 334 336 339 339 339 339 342 348 348 351 350
343 349 351 349 348 348 345 342 340 340 340 338 336 334 334 331 331 332 333 332 330 330 330 330 330 330 330 330 330 331 332 333 332 334 332 334 336 334 341 345 350 348 347
343 349 351 349 349 347 343 339 338 335 335 337 335 333 331 331 332 332 333 332 332 333 333 333 333 333 334 335 334 333 332 332 334 330 333 336 341 340 340 344 349 348 347
345 348 350 350 350 345 342 339 335 336 337 336 335 333 331 331 331 332 333 334 334 334 334 335 335 335 334 334 336 334 333 332 333 335 340 344 341 342 345 347 348 349 346
346 347 350 350 349 344 341 337 334 336 336 336 335 332 331 333 333 333 334 335 335 335 335 334 333 333 333 333 335 338 334 333 335 340 345 344 348 351 350 351 348 346 344
346 346 350 348 347 344 340 336 334 334 334 333 331 330 330 331 333 334 336 336 336 336 335 334 334 333 333 333 335 336 334 335 338 341 343 345 349 349 347 347 346 346 346
345 345 347 348 343 341 335 336 335 333 332 330 329 333 335 336 336 335 336 335 337 336 334 333 333 333 332 331 334 335 334 337 336 340 345 344 347 347 346 346 345 344 344
343 345 347 346 342 339 335 335 336 336 334 334 332 331 332 334 333 332 330 333 336 333 331 332 332 331 329 326 328 330 330 334 332 340 343 345 346 343 343 341 340 339 337
342 344 345 346 341 339 334 337 337 337 336 334 332 332 333 333 333 332 334 331 331 330 329 329 329 327 326 328 328 326 335 336 335 343 342 343 343 341 339 337 335 334 333
343 342 343 346 344 339 335 337 336 337 336 334 332 332 333 332 331 328 329 329 331 327 328 327 328 328 327 328 329 330 338 339 342 341 341 342 342 339 336 334 333 332 331
340 342 344 345 339 338 337 336 336 335 336 334 333 333 333 332 333 331 330 329 332 330 329 329 328 329 329 327 328 329 336 339 340 341 340 340 340 337 335 333 333 332 330
341 342 343 346 343 339 337 336 336 336 335 335 332 332 333 332 334 333 331 330 330 331 328 327 328 329 328 327 328 329 331 336 338 338 337 338 338 337 336 335 334 332 331
342 342 344 343 344 340 339 337 336 337 336 335 332 332 331 331 334 334 332 330 331 330 329 328 328 329 329 329 328 329 331 332 333 336 336 337 338 337 336 335 334 334 334
338 343 344 345 345 343 339 337 337 337 335 335 333 333 332 332 334 335 332 331 332 331 329 330 330 331 330 330 328 330 332 333 333 333 335 337 337 335 335 336 335 333 333
332 336 342 343 343 344 339 338 338 338 337 336 334 332 333 332 332 334 332 332 332 331 330 329 329 328 328 329 329 330 330 331 331 334 335 336 338 335 335 333 334 335 335
329 332 337 342 342 343 341 339 338 337 334 335 334 332 333 332 331 332 331 332 333 331 331 328 329 327 327 327 328 329 330 330 329 328 330 330 332 333 334 329 328 329 329
327 332 336 339 341 340 336 335 333 332 333 334 333 333 334 333 332 333 332 333 331 330 331 331 329 328 326 326 324 324 328 328 329 329 330 330 331 331 331 331 331 330 327
329 333 336 336 337 334 332 330 330 329 331 331 331 332 333 334 333 334 332 333 331 330 331 332 330 327 327 328 326 324 325 327 328 330 332 330 329 332 332 333 332 331 330
329 333 335 336 335 334 333 332 332 331 331 331 332 332 332 334 335 334 333 332 331 329 330 331 331 328 328 329 324 324 318 321 324 326 329 328 330 330 329 329 329 330 329
328 332 334 336 335 334 335 332 332 334 332 330 332 333 334 334 334 334 333 332 331 330 328 329 329 328 326 329 329 324 318 316 322 327 328 328 330 328 328 328 328 328 329
328 330 333 334 335 334 334 331 332 335 325 329 331 332 333 335 334 333 334 333 333 330 330 329 329 329 328 327 330 328 329 327 320 317 326 326 327 326 328 326 326 326 327
330 328 331 333 332 333 333 331 331 332 328 331 333 334 336 335 334 332 334 334 333 331 331 331 330 330 329 327 327 328 327 327 326 320 313 317 322 325 326 325 325 323 325
333 330 330 327 331 330 330 329 329 328 330 331 332 331 330 332 333 334 333 334 334 332 332 331 331 331 331 329 329 328 327 323 321 320 316 317 317 321 324 324 322 320 320
Wind_Speed
6 10 11 9 7 7 5 5 5 5 9 8 8 8 7 7 7 8 7 8 7 8 8 7 8 8 7 7 8 7 7 6 6 6 5 5 6 5 6 10 12 13 15
12 10 11 10 7 7 5 5 5 5 8 7 7 6 6 5 5 5 6 7 8 8 7 7 6 6 6 6 6 6 6 6 6 5 4 1 2 4 3 3 6 7 8
14 11 11 8 7 6 6 6 5 6 7 7 6 6 5 3 4 4 5 6 6 7 7 7 6 5 4 4 4 4 5 6 5 4 4 3 2 1 2 2 4 6 6
13 11 9 9 8 7 7 7 7 7 6 6 6 4 4 4 4 4 5 6 6 6 6 6 5 4 3 4 4 4 4 4 5 5 4 3 3 1 3 4 4 3 2
12 10 8 9 7 7 7 6 6 6 6 6 5 4 4 4 5 6 7 7 8 7 6 5 5 5 5 4 4 4 4 5 4 6 5 4 4 3 6 5 7 5 1
12 10 10 9 8 8 7 6 5 4 5 5 4 3 3 4 6 6 7 8 8 8 7 6 4 4 5 6 5 4 4 3 6 3 4 5 7 2 8 7 5 1 1
11 10 10 10 10 9 8 6 6 6 7 7 6 4 3 3 3 4 5 6 7 7 7 7 5 5 5 7 8 4 3 3 6 2 3 5 5 7 10 11 6 6 2
12 11 9 11 10 9 7 7 7 7 8 7 5 3 2 0 1 2 4 5 6 8 8 9 7 7 7 7 7 4 4 4 4 1 1 5 7 8 11 12 8 6 4
11 11 9 9 9 9 8 8 9 8 7 5 2 1 2 3 4 4 5 5 6 7 8 9 9 8 8 8 7 4 3 3 3 3 4 5 8 10 11 12 10 10 11
11 10 9 8 8 7 8 9 9 8 6 3 1 4 5 4 4 3 6 2 6 7 8 8 8 8 7 7 7 7 2 2 2 4 4 6 8 12 12 13 13 11 10
9 10 10 10 10 10 8 8 9 8 6 3 1 4 2 2 2 2 2 3 5 6 6 6 8 8 7 4 6 6 2 1 4 4 4 9 11 12 12 11 11 10 9
14 12 9 10 11 8 7 7 6 5 3 3 2 1 1 2 4 4 7 6 5 6 5 6 7 6 4 3 2 1 3 3 5 6 6 9 10 11 10 10 9 8 7
11 9 11 11 11 9 7 6 4 3 3 3 3 1 1 1 2 2 2 2 2 3 3 4 5 4 6 4 2 2 2 4 5 5 9 8 8 8 8 7 6 5 4
10 12 13 12 8 8 6 6 5 4 4 3 2 2 1 2 2 1 2 3 2 3 4 4 3 4 5 4 4 3 3 4 4 4 8 7 7 7 6 6 5 4 2
13 13 13 13 11 9 9 6 6 5 5 4 4 3 2 2 0 0 2 2 2 2 4 4 3 3 4 3 4 2 3 4 4 3 3 6 5 6 6 6 6 3 3
13 14 13 14 12 11 10 9 7 6 5 5 4 3 4 3 1 1 0 1 1 2 3 3 3 3 3 2 3 3 2 1 2 3 3 5 5 5 6 5 4 4 6
15 13 15 14 13 13 12 9 7 6 6 6 5 5 5 4 2 1 1 1 1 2 3 2 1 1 0 1 2 2 1 2 3 3 3 2 3 2 5 6 5 7 8
13 15 15 12 13 13 10 8 7 6 6 6 5 4 6 5 3 2 2 2 1 2 3 2 2 1 2 2 1 1 2 3 4 4 3 1 2 3 3 1 5 7 9
11 14 14 13 13 12 9 6 7 6 6 5 5 5 6 6 6 5 3 3 2 2 2 3 2 3 2 3 2 0 1 2 3 3 2 0 2 3 3 1 6 8 8
4 9 11 11 10 9 6 5 4 5 5 5 6 6 7 6 8 6 3 3 3 3 1 1 4 3 4 4 1 2 2 3 4 3 2 1 2 1 3 4 4 3 5
5 9 11 12 10 9 7 7 5 6 6 6 6 8 8 7 7 5 3 4 4 4 1 1 1 3 3 4 3 3 3 4 5 2 1 3 3 1 3 2 4 4 5
6 8 9 11 11 9 6 4 2 4 4 4 5 6 8 7 7 6 6 5 5 4 4 3 2 1 0 4 3 2 2 4 6 5 4 3 3 3 4 5 5 4 5
5 8 10 10 9 8 7 4 3 1 2 4 5 6 8 9 9 8 8 6 6 5 3 4 4 4 0 1 2 3 3 2 3 3 4 4 3 5 6 4 4 4 3
6 9 11 11 11 9 8 5 6 5 7 4 3 3 3 6 9 9 8 7 7 5 5 5 4 4 4 2 2 3 4 4 4 5 3 4 6 6 4 4 4 4 4
5 8 9 8 5 6 6 5 4 6 7 4 3 4 3 5 8 9 9 8 7 6 6 6 6 6 4 4 4 3 4 5 5 7 8 5 5 4 5 5 6 6 5
5 5 6 7 6 2 2 3 6 8 10 7 6 4 4 5 5 8 8 8 8 7 8 7 7 7 7 6 5 5 6 6 5 6 8 8 8 6 6 6 6 5 4
Wind_Direction
176 154 160 156 157 149 140 131 115 113 119 110 103 93 78 59 42 35 40 53 46 47 46 47 41 34 21 17 15 13 15 14 14 14 3 8 27 70 182 188 183 191 203
140 154 154 157 153 150 139 117 110 122 119 116 108 99 92 79 58 44 39 44 26 29 32 23 28 30 17 7 5 1 357 1 8 3 357 123 44 14 110 151 192 140 191
147 155 157 151 155 154 147 130 134 137 128 128 123 115 102 76 67 54 42 31 24 23 20 16 22 10 4 356 348 345 342 343 340 337 9 289 245 320 286 195 198 199 203
149 151 151 153 159 159 144 144 141 138 139 132 123 112 85 54 51 61 46 23 16 21 22 20 15 3 349 338 329 329 328 322 321 322 260 277 265 203 249 230 212 240 254
148 144 148 153 161 152 152 147 141 142 146 138 130 111 78 66 73 56 43 36 35 38 35 30 15 358 343 329 317 304 306 313 310 262 275 260 241 213 247 237 217 210 241
143 147 152 159 161 161 158 151 141 140 149 145 129 110 86 70 63 55 45 42 42 42 35 28 19 357 340 329 310 301 293 282 274 251 246 239 245 190 227 228 244 236 143
149 154 162 170 168 170 164 151 143 140 148 150 143 133 109 79 54 47 38 33 31 26 14 5 355 345 336 331 336 272 261 269 264 270 275 249 211 204 224 207 210 152 163
158 161 162 168 172 171 159 150 144 143 140 145 143 137 132 32 14 13 4 4 12 12 3 354 357 0 359 349 343 271 216 242 221 15 103 135 113 135 108 122 127 109 74
165 169 169 169 174 172 161 155 154 152 151 153 153 190 284 293 306 316 321 329 350 353 355 3 13 4 359 352 7 60 195 217 263 109 122 121 112 108 104 101 92 84 72
174 175 173 172 170 176 164 167 157 154 152 159 250 320 316 287 283 304 298 310 335 344 1 3 2 354 349 357 20 33 10 241 208 145 125 93 108 102 97 91 86 80 73
185 182 180 179 181 182 172 165 168 160 149 123 79 31 132 79 44 9 17 292 350 21 12 20 21 13 358 8 16 24 315 165 168 157 132 104 101 100 97 95 90 84 75
198 190 186 193 192 183 180 187 177 163 146 103 50 75 80 85 54 61 73 68 43 31 42 27 16 1 343 350 358 13 23 119 149 148 108 115 109 107 103 99 97 95 92
200 193 195 186 193 194 206 189 184 181 167 136 123 129 83 121 94 90 87 40 43 44 19 8 353 7 9 360 32 27 35 135 133 142 112 123 119 113 110 107 108 102 81
200 201 192 192 188 195 204 202 195 191 184 174 141 183 223 188 146 136 39 80 34 41 16 359 340 347 356 3 3 5 84 133 138 139 126 139 136 134 141 151 153 143 127
217 206 196 191 199 193 197 210 207 202 200 184 182 177 213 217 173 197 51 37 33 39 14 6 4 349 356 12 9 46 84 115 122 153 151 154 158 164 178 189 191 191 216
220 207 198 197 194 196 201 211 209 205 209 204 194 177 200 219 197 216 170 49 65 26 17 359 14 350 6 30 44 50 61 195 198 195 183 167 188 206 223 232 234 254 266
220 202 195 194 194 201 198 207 214 213 202 211 201 191 194 210 205 252 291 310 17 359 351 9 25 42 20 125 97 107 109 130 168 176 189 236 177 201 282 262 269 274 282
226 194 191 188 191 197 196 200 218 217 210 217 197 200 206 205 212 225 257 286 338 314 329 5 351 339 16 360 16 96 124 135 130 142 161 246 269 277 194 308 310 304 297
213 189 183 182 187 189 189 206 215 216 210 211 202 203 211 219 212 230 232 229 227 299 318 343 353 336 353 350 287 215 132 134 122 117 109 26 270 266 282 246 298 297 305
185 185 172 177 175 165 158 174 182 206 203 199 213 223 214 219 218 220 217 228 229 244 227 334 336 4 344 346 25 135 163 161 140 102 180 22 46 158 277 288 294 286 296
151 168 167 164 161 159 162 184 196 208 196 201 216 232 223 225 219 209 224 211 220 246 288 265 338 353 13 5 246 152 152 184 191 202 334 247 227 352 336 292 290 303 288
163 174 173 180 169 178 177 179 210 210 211 219 215 227 226 226 219 205 212 215 217 226 217 230 258 247 279 16 346 296 211 178 221 243 279 242 248 308 314 298 301 298 298
167 189 190 186 183 193 198 177 191 167 194 200 209 217 212 214 210 203 201 215 216 241 229 216 224 242 243 160 328 317 241 263 283 209 239 277 295 307 318 291 300 312 325
179 197 201 194 193 192 208 218 223 242 237 221 234 238 218 202 199 202 202 208 213 222 219 219 220 242 236 253 226 230 285 311 286 290 241 251 293 275 295 281 277 282 306
164 207 214 199 180 212 212 264 270 276 274 274 221 240 220 197 194 205 207 208 219 226 219 223 213 224 225 264 249 243 241 249 255 271 286 282 275 280 292 278 306 302 294
192 173 195 176 223 222 167 288 264 277 280 270 255 242 225 208 199 215 219 219 218 225 225 222 225 228 237 243 256 253 257 270 279 257 269 278 294 300 295 292 273 287 299